{"data":{"norad_id":89494,"intl_designator":"","name":"UNKNOWN","alt_names":[],"object_type":"UNKNOWN","status":"UNKNOWN","operator":null,"country":null,"launch_date":null,"launch_site_code":null,"launch_vehicle":null,"mission":null,"orbit_class":"UNKNOWN","rcs_meters":null,"size_class":null,"mass_kg":null,"dimensions":null,"purposes":[],"wikipedia_slug":null,"has_3d_model":false,"image_url":null,"decayed_at":null,"tle_current":{"epoch":"2026-05-23T15:41:28.325184Z","epoch_age_seconds":191395,"freshness":"STALE","line1":"1 89494U          26143.65380006  .00001572  00000+0  77979-3 0  9994","line2":"2 89494  99.0129 219.5933 0079074 300.1994  59.1365 14.17095338486728","mean_motion":14.17095338,"eccentricity":0.0079074,"inclination_deg":99.0129,"raan_deg":219.5933,"arg_perigee_deg":300.1994,"mean_anomaly_deg":59.1365,"bstar":0.00077979,"rev_number":48672,"period_min":101.6163105887,"perigee_km":778.15421729481,"apogee_km":892.23158703154,"semimajor_km":7213.3299021632,"source":"CELESTRAK","updated_at":"2026-05-25T13:38:11.782647Z"}}}